[[{"header":{"parameterUnit":"m.s-1","parameterCategory":2,"la1":30.2991,"la2":30.254,"lo1":-89.0895,"lo2":-89.0444,"dy":0.0017,"dx":0.0017,"nx":28,"ny":28,"refTime":"2024-06-18T09:00:00:Z","depth":"0","parameterNumber":2,"parameterNumberName":"U-component_of_CURRENTS"},"data":[0,0,0,0,0,0,0,0,0,0,0,0,0,0,0,0,0,0,0,0,0,0,0,0,0,0,0,0,0,0,0,0,0,0,0,0,0,0,0,0,0,0,0,0,0,0,0,0,0,0,0,0,0,0,0,0,0,0,-0.2422,-0.2423,0,-0.245,-0.245,-0.245,-0.2421,-0.242,-0.2419,-0.2418,-0.2378,-0.2378,-0.2378,0,0,0,0,0,0,0,0,0,0,0,0,0,-0.2333,-0.2335,-0.2422,-0.2423,-0.2423,-0.245,-0.245,-0.245,-0.2421,-0.242,-0.2419,-0.2418,-0.2379,-0.2378,-0.2378,0,0,0,0,0,0,0,0,0,0,0,0,0,-0.2364,-0.2335,-0.2422,-0.2414,-0.2414,-0.245,-0.245,-0.245,-0.2421,-0.242,-0.2419,-0.2417,-0.2379,-0.2378,-0.2378,-0.24,0,0,-0.2377,-0.2376,0,0,0,0,0,0,0,0,-0.2362,-0.2367,-0.2415,-0.2415,-0.2415,-0.2433,-0.2404,-0.2431,-0.2421,-0.2415,-0.2418,-0.2417,-0.2394,-0.2392,-0.2396,-0.2398,-0.2397,-0.2377,-0.2376,-0.2376,-0.2376,0,0,0,0,0,0,0,-0.236,-0.2366,-0.243,-0.2416,-0.2416,-0.2406,-0.2409,-0.2409,-0.2407,-0.2416,-0.2414,-0.2423,-0.2392,-0.2397,-0.2395,-0.2396,-0.2377,-0.2376,-0.2376,-0.2376,-0.2405,-0.2406,0,0,0,0,0,0,-0.2366,-0.2364,-0.2429,-0.2431,-0.2389,-0.2409,-0.2412,-0.2426,-0.2409,-0.2406,-0.2424,-0.2421,-0.2398,-0.2396,-0.2393,-0.2416,-0.2376,-0.2376,-0.2375,-0.2404,-0.2406,-0.2407,0,0,0,0,0,0,-0.2364,-0.2372,-0.2428,-0.24,-0.2407,-0.2412,-0.2428,-0.2427,-0.2429,-0.2416,-0.2412,-0.2426,-0.2397,-0.2394,-0.2395,-0.2414,-0.2376,-0.2375,-0.2403,-0.2405,-0.2406,-0.2464,0,0,0,0,0,0,-0.2361,-0.2371,-0.2379,-0.2401,-0.2409,-0.2452,-0.243,-0.2429,-0.2438,-0.2434,-0.2417,-0.2412,-0.2396,-0.2396,-0.2395,-0.2413,-0.2375,-0.2402,-0.2404,-0.2406,-0.246,-0.2467,-0.2473,0,0,0,0,0,-0.2358,-0.2377,-0.2379,-0.2387,-0.2421,-0.2454,-0.2457,-0.2453,-0.2439,-0.2447,-0.2434,-0.2412,-0.2408,-0.2397,-0.2395,-0.2414,-0.2401,-0.2403,-0.2406,-0.2458,-0.2466,-0.2472,0,0,0,0,0,0,-0.2341,-0.2378,-0.2379,-0.2408,-0.2431,-0.245,-0.2458,-0.2458,-0.2456,-0.2448,-0.2427,-0.2422,-0.2431,-0.2417,-0.2406,-0.2428,-0.2401,-0.2403,-0.2441,-0.2448,-0.2454,-0.2462,-0.2374,0,0,0,0,0,-0.2344,-0.2365,-0.2399,-0.2419,-0.2433,-0.2446,-0.2456,-0.246,-0.2465,-0.2462,-0.2451,-0.2441,-0.2443,-0.2439,-0.2436,-0.245,-0.2441,-0.2461,-0.2467,-0.2472,-0.2478,-0.248,-0.2487,-0.2415,-0.2415,-0.2414,0,0,-0.2341,-0.2365,-0.2375,-0.2416,-0.243,-0.2462,-0.2448,-0.2471,-0.2494,-0.2459,-0.2474,-0.2462,-0.2451,-0.2466,-0.2469,-0.2454,-0.2491,-0.2475,-0.248,-0.2482,-0.2484,-0.2491,-0.2497,-0.2416,-0.2416,-0.2416,0,0,-0.2351,-0.237,-0.2393,-0.2421,-0.2455,-0.2471,-0.248,-0.2504,-0.2508,-0.2528,-0.251,-0.2511,-0.2509,-0.251,-0.2509,-0.2549,-0.2524,-0.2545,-0.2581,-0.2584,-0.259,-0.2595,-0.2603,-0.2608,-0.2547,-0.2547,-0.2547,0,-0.2344,-0.2382,-0.2403,-0.2439,-0.2463,-0.2477,-0.251,-0.2529,-0.2548,-0.2556,-0.2537,-0.2544,-0.2534,-0.2558,-0.2571,-0.2563,-0.2559,-0.2553,-0.2592,-0.2596,-0.2601,-0.2607,-0.2612,-0.255,-0.255,-0.2549,-0.2549,0,-0.2375,-0.2409,-0.2427,-0.2477,-0.2506,-0.2537,-0.2574,-0.2594,-0.2596,-0.2608,-0.2626,-0.2615,-0.2614,-0.2618,-0.2606,-0.2636,-0.2622,-0.26,-0.2573,-0.2611,-0.2616,-0.262,-0.2554,-0.2553,-0.2552,-0.2552,0,0,-0.2345,-0.2431,-0.2436,-0.2466,-0.2528,-0.2553,-0.2602,-0.2645,-0.2672,-0.2679,-0.2708,-0.271,-0.2693,-0.2692,-0.2678,-0.2685,-0.2715,-0.2658,-0.2656,-0.2665,-0.2726,-0.2705,-0.2707,-0.2696,-0.2697,-0.2697,-0.2721,0,-0.2358,-0.2427,-0.247,-0.2528,-0.2565,-0.2605,-0.2652,-0.2692,-0.2714,-0.2747,-0.2744,-0.2758,-0.2726,-0.2723,-0.2728,-0.272,-0.2727,-0.2711,-0.2687,-0.2687,-0.2663,-0.2711,-0.2666,-0.2682,-0.2725,-0.2725,-0.2726,0,-0.2367,-0.2416,-0.2476,-0.2558,-0.2578,-0.2612,-0.2678,-0.2719,-0.2777,-0.2794,-0.2809,-0.2809,-0.2826,-0.2788,-0.279,-0.2779,-0.2758,-0.2748,-0.2748,-0.271,-0.2673,-0.2648,-0.2688,-0.2678,-0.2732,-0.2731,-0.2731,0,-0.2324,-0.2415,-0.2459,-0.2487,-0.2585,-0.261,-0.2651,-0.2719,-0.2754,-0.2812,-0.2838,-0.2859,-0.286,-0.2848,-0.2824,-0.2807,-0.2828,-0.2797,-0.276,-0.2758,-0.2707,-0.2699,-0.2732,-0.2797,-0.2797,-0.2797,-0.2797,0,-0.2318,-0.235,-0.2438,-0.2462,-0.2501,-0.2581,-0.2626,-0.2672,-0.2752,-0.2798,-0.2839,-0.2871,-0.2872,-0.2883,-0.2855,-0.2827,-0.2846,-0.2781,-0.2767,-0.2727,-0.2721,-0.2697,-0.2709,-0.2798,-0.2798,-0.2798,-0.2798,0,-0.2254,-0.2323,-0.2364,-0.2456,-0.2477,-0.2494,-0.2585,-0.2634,-0.2711,-0.2774,-0.2792,-0.2875,-0.2894,-0.2898,-0.2893,-0.2858,-0.2806,-0.2821,-0.2779,-0.276,-0.2707,-0.2724,-0.2695,-0.2619,-0.279,-0.279,-0.2789,0,-0.2226,-0.2243,-0.2315,-0.2341,-0.2374,-0.2423,-0.2472,-0.2575,-0.2637,-0.2769,-0.28,-0.286,-0.2897,-0.2902,-0.2869,-0.2839,-0.2791,-0.2768,-0.2725,-0.2715,-0.2724,-0.2681,-0.2615,-0.2684,-0.2683,-0.2682,-0.2682,0,-0.2156,-0.2174,-0.2212,-0.2247,-0.2291,-0.2338,-0.2415,-0.2458,-0.2599,-0.2677,-0.2776,-0.2823,-0.2872,-0.2858,-0.2835,-0.2785,-0.2721,-0.2747,-0.2746,-0.2662,-0.2608,-0.2524,-0.2665,-0.2674,-0.2674,-0.2675,-0.2675,-0.2676,-0.2079,-0.2076,-0.2118,-0.2139,-0.219,-0.2224,-0.223,-0.2359,-0.2431,-0.2553,-0.269,-0.2788,-0.2854,-0.2824,-0.2776,-0.2694,-0.2657,-0.2624,-0.2652,-0.2613,-0.2522,-0.2653,-0.2637,-0.2637,-0.2638,-0.2638,-0.2638,0,-0.1979,-0.1995,-0.2015,-0.2039,-0.2044,-0.2099,-0.2175,-0.218,-0.2241,-0.2439,-0.2548,-0.2756,-0.2762,-0.2789,-0.275,-0.2647,-0.253,-0.2567,-0.2505,-0.2442,-0.2572,-0.255,-0.2503,-0.2503,-0.2503,-0.2503,-0.2503,-0.2503,-0.1933,-0.1909,-0.1914,-0.187,-0.1892,-0.1848,-0.1858,-0.19,-0.2004,-0.2181,-0.2391,-0.2629,-0.2678,-0.2906,-0.2798,-0.2665,-0.254,-0.2469,-0.2431,-0.2562,-0.2569,-0.2575,-0.2556,-0.2512,-0.2512,-0.2216,-0.2214,-0.2213]},{"header":{"parameterUnit":"m.s-1","parameterCategory":2,"la1":30.2991,"la2":30.254,"lo1":-89.0895,"lo2":-89.0444,"dy":0.0017,"dx":0.0017,"nx":28,"ny":28,"refTime":"2024-06-18T09:00:00:Z","depth":"0","parameterNumber":3,"parameterNumberName":"V-component_of_CURRENTS"},"data":[0,0,0,0,0,0,0,0,0,0,0,0,0,0,0,0,0,0,0,0,0,0,0,0,0,0,0,0,0,0,0,0,0,0,0,0,0,0,0,0,0,0,0,0,0,0,0,0,0,0,0,0,0,0,0,0,0,0,-0.0211,-0.021,0,-0.0108,-0.0107,-0.0106,-0.004,-0.004,-0.0039,-0.0039,0.0081,0.0084,0.0086,0,0,0,0,0,0,0,0,0,0,0,0,0,-0.0304,-0.0302,-0.0211,-0.021,-0.0209,-0.0108,-0.0107,-0.0105,-0.004,-0.004,-0.0039,-0.0039,0.008,0.0083,0.0087,0,0,0,0,0,0,0,0,0,0,0,0,0,-0.0238,-0.0302,-0.0211,-0.0164,-0.0159,-0.0109,-0.0107,-0.0105,-0.004,-0.004,-0.0039,-0.0039,0.0079,0.0083,0.0087,0.0104,0,0,0.01,0.0102,0,0,0,0,0,0,0,0,-0.0242,-0.0235,-0.0172,-0.0168,-0.0162,-0.0087,-0.0095,-0.0034,-0.004,-0.0085,-0.0039,-0.0038,0.0025,0.0034,0.0053,0.0109,0.0115,0.0101,0.0103,0.0105,0.0106,0,0,0,0,0,0,0,-0.0246,-0.0238,-0.017,-0.0171,-0.0165,-0.0132,-0.0123,-0.0083,-0.0033,-0.0081,-0.0076,-0.0066,0.0029,0.0049,0.0056,0.0116,0.0101,0.0104,0.0107,0.0109,0.0208,0.0209,0,0,0,0,0,0,-0.0263,-0.0243,-0.0173,-0.0167,-0.0202,-0.0131,-0.0121,-0.0111,-0.0033,-0.0021,-0.0066,-0.0063,0.0041,0.0051,0.0061,0.0092,0.0105,0.0109,0.0112,0.0208,0.0208,0.0209,0,0,0,0,0,0,-0.0266,-0.0258,-0.0177,-0.0203,-0.019,-0.0131,-0.012,-0.0109,-0.0088,-0.0023,-0.001,-0.0056,0.0042,0.0055,0.01,0.0097,0.0111,0.0115,0.0208,0.0208,0.0209,0.015,0,0,0,0,0,0,-0.0269,-0.026,-0.0262,-0.0204,-0.0189,-0.0154,-0.012,-0.0107,-0.0083,-0.0077,-0.001,0.0002,0.0043,0.0093,0.0104,0.0103,0.0118,0.0208,0.0208,0.0208,0.0151,0.0148,0.0144,0,0,0,0,0,-0.0273,-0.0279,-0.0263,-0.0254,-0.0194,-0.0155,-0.0144,-0.0099,-0.0083,-0.0078,-0.0027,-0.0,0.0101,0.0097,0.011,0.011,0.0208,0.0208,0.0208,0.0153,0.0148,0.0144,0,0,0,0,0,0,-0.0321,-0.0272,-0.0252,-0.0244,-0.0206,-0.0144,-0.0137,-0.0106,-0.0062,-0.0057,0.0004,0.002,0.0056,0.0091,0.0085,0.0139,0.0157,0.016,0.0111,0.0107,0.0104,0.0089,0.0122,0,0,0,0,0,-0.0334,-0.0327,-0.0272,-0.0267,-0.0251,-0.0196,-0.0176,-0.0145,-0.0097,-0.0078,-0.0028,0.0022,0.0066,0.0093,0.0134,0.0166,0.0204,0.0174,0.017,0.0167,0.0164,0.0217,0.0218,0.0209,0.0209,0.0209,0,0,-0.0352,-0.0325,-0.032,-0.0278,-0.0245,-0.0228,-0.0183,-0.0158,-0.014,-0.0072,-0.0037,0.001,0.0071,0.0108,0.0127,0.0138,0.019,0.0167,0.0164,0.0163,0.0217,0.0218,0.0219,0.0209,0.0209,0.0209,0,0,-0.0388,-0.036,-0.0367,-0.0339,-0.0297,-0.0259,-0.0255,-0.0196,-0.0166,-0.0126,-0.0073,-0.0026,0.0038,0.0087,0.0118,0.012,0.0166,0.0129,0.0104,0.0155,0.0156,0.0158,0.0206,0.0212,0.013,0.013,0.013,0,-0.0413,-0.0411,-0.0364,-0.036,-0.0343,-0.0278,-0.0278,-0.0236,-0.0169,-0.0144,-0.0125,-0.0019,0.003,0.0086,0.0087,0.0112,0.0146,0.0113,0.015,0.0152,0.0154,0.0204,0.0211,0.0127,0.0127,0.0128,0.0128,0,-0.045,-0.0447,-0.0449,-0.0422,-0.0396,-0.0387,-0.0324,-0.0294,-0.0252,-0.0203,-0.0142,-0.0067,-0.0003,0.0019,0.0055,0.0097,0.0117,0.0135,0.0157,0.0152,0.0204,0.0213,0.0123,0.0124,0.0125,0.0126,0,0,-0.0505,-0.0483,-0.0481,-0.0485,-0.0429,-0.0415,-0.0381,-0.033,-0.0308,-0.0235,-0.0198,-0.0115,-0.0068,-0.003,0.0027,0.0074,0.0122,0.0105,0.0109,0.0146,0.0233,0.0285,0.03,0.0144,0.0145,0.0146,0.0263,0,-0.0548,-0.0573,-0.0536,-0.0548,-0.0554,-0.0485,-0.0459,-0.0401,-0.034,-0.0286,-0.0193,-0.0139,-0.0087,-0.0058,-0.0,0.0094,0.0142,0.0088,0.0239,0.0244,0.0285,0.0312,0.0359,0.0471,0.0272,0.0273,0.0274,0,-0.0592,-0.0604,-0.0633,-0.0618,-0.0612,-0.0603,-0.0552,-0.0519,-0.0419,-0.037,-0.0288,-0.0209,-0.0113,-0.008,0.0084,0.0046,0.0128,0.02,0.0206,0.0281,0.0313,0.0446,0.0495,0.0672,0.0289,0.0288,0.0287,0,-0.0663,-0.0666,-0.0698,-0.0692,-0.0662,-0.0658,-0.0634,-0.0551,-0.0524,-0.0422,-0.0388,-0.0255,-0.019,-0.0064,0.01,0.0088,0.0277,0.0282,0.0408,0.0412,0.0497,0.0507,0.0731,0.0382,0.0382,0.0381,0.0381,0,-0.0723,-0.0744,-0.0739,-0.0758,-0.0786,-0.0734,-0.0733,-0.0684,-0.0612,-0.0578,-0.0443,-0.038,-0.0186,-0.0045,0.0091,0.0293,0.0278,0.0413,0.0451,0.0478,0.0485,0.0678,0.0742,0.0386,0.0385,0.0384,0.0383,0,-0.0788,-0.0786,-0.0825,-0.0823,-0.0824,-0.0844,-0.0817,-0.0813,-0.073,-0.068,-0.0652,-0.0471,-0.0272,-0.0066,0.0155,0.0283,0.0581,0.053,0.0551,0.0589,0.086,0.0917,0.1175,0.126,0.0687,0.0689,0.0691,0,-0.0823,-0.0852,-0.0886,-0.0921,-0.0925,-0.094,-0.0949,-0.0884,-0.0871,-0.0728,-0.0712,-0.0507,-0.0346,0.0019,0.0296,0.0569,0.0684,0.0748,0.0734,0.09,0.0992,0.1038,0.1092,0.0826,0.0828,0.0831,0.0832,0,-0.0888,-0.09,-0.0938,-0.1013,-0.1048,-0.1075,-0.108,-0.109,-0.0994,-0.093,-0.08,-0.0657,-0.0257,0.011,0.0481,0.0633,0.0893,0.08,0.0978,0.113,0.119,0.1281,0.0718,0.0852,0.085,0.0849,0.0848,0.0847,-0.093,-0.098,-0.1036,-0.1102,-0.1151,-0.1201,-0.1231,-0.1213,-0.1186,-0.1079,-0.0896,-0.0649,-0.0057,0.0494,0.07,0.1141,0.1071,0.1241,0.13,0.1334,0.1419,0.0896,0.1065,0.1064,0.1063,0.1063,0.1062,0,-0.0981,-0.1041,-0.1119,-0.1202,-0.1275,-0.1272,-0.1308,-0.1322,-0.1301,-0.1146,-0.0985,-0.0347,0.0234,0.0767,0.1431,0.1646,0.1678,0.1726,0.1812,0.1843,0.1401,0.141,0.1654,0.1654,0.1654,0.1653,0.1653,0.1653,-0.1014,-0.1104,-0.1148,-0.1286,-0.1346,-0.1427,-0.1454,-0.1453,-0.1365,-0.1117,-0.0785,-0.049,0.0346,0.1528,0.2135,0.2146,0.2316,0.2286,0.2366,0.2073,0.2032,0.1993,0.202,0.2388,0.2389,0.2797,0.2801,0.2804]}],[{"header":{"parameterUnit":"m.s-1","parameterCategory":2,"la1":30.2991,"la2":30.254,"lo1":-89.0895,"lo2":-89.0444,"dy":0.0017,"dx":0.0017,"nx":28,"ny":28,"refTime":"2024-06-18T09:00:00:Z","depth":"2","parameterNumber":2,"parameterNumberName":"U-component_of_CURRENTS"},"data":[0,0,0,0,0,0,0,0,0,0,0,0,0,0,0,0,0,0,0,0,0,0,0,0,0,0,0,0,0,0,0,0,0,0,0,0,0,0,0,0,0,0,0,0,0,0,0,0,0,0,0,0,0,0,0,0,0,0,-0.2297,-0.2298,0,-0.2325,-0.2325,-0.2325,-0.23,-0.2299,-0.2299,-0.2298,-0.2263,-0.2262,-0.2262,0,0,0,0,0,0,0,0,0,0,0,0,0,-0.2213,-0.2214,-0.2297,-0.2298,-0.2298,-0.2325,-0.2325,-0.2325,-0.23,-0.2299,-0.2298,-0.2297,-0.2263,-0.2262,-0.2262,0,0,0,0,0,0,0,0,0,0,0,0,0,-0.2243,-0.2215,-0.2297,-0.2292,-0.2292,-0.2324,-0.2325,-0.2325,-0.23,-0.2299,-0.2298,-0.2297,-0.2263,-0.2263,-0.2262,-0.2281,0,0,-0.2261,-0.2261,0,0,0,0,0,0,0,0,-0.2241,-0.2245,-0.2292,-0.2292,-0.2292,-0.231,-0.2282,-0.2308,-0.2301,-0.2294,-0.2298,-0.2297,-0.2276,-0.2274,-0.2278,-0.228,-0.2278,-0.2261,-0.2261,-0.226,-0.226,0,0,0,0,0,0,0,-0.2239,-0.2244,-0.2305,-0.2293,-0.2293,-0.2284,-0.2287,-0.2287,-0.2287,-0.2294,-0.2293,-0.2302,-0.2275,-0.2279,-0.2277,-0.2278,-0.2261,-0.2261,-0.226,-0.226,-0.229,-0.2291,0,0,0,0,0,0,-0.2244,-0.2243,-0.2304,-0.2306,-0.2267,-0.2287,-0.229,-0.2303,-0.2288,-0.2286,-0.2303,-0.23,-0.228,-0.2278,-0.2276,-0.2301,-0.226,-0.226,-0.226,-0.2289,-0.2291,-0.2292,0,0,0,0,0,0,-0.2242,-0.2249,-0.2303,-0.2277,-0.2283,-0.229,-0.2305,-0.2304,-0.2308,-0.2296,-0.2292,-0.2307,-0.2279,-0.2276,-0.2279,-0.2299,-0.226,-0.226,-0.2288,-0.229,-0.2291,-0.2349,0,0,0,0,0,0,-0.224,-0.2249,-0.2257,-0.2277,-0.2285,-0.2327,-0.2306,-0.2306,-0.2316,-0.2314,-0.2298,-0.2294,-0.2278,-0.228,-0.2279,-0.2298,-0.2259,-0.2287,-0.2289,-0.2291,-0.2346,-0.2352,-0.2358,0,0,0,0,0,-0.2237,-0.2255,-0.2258,-0.2265,-0.2298,-0.2329,-0.2332,-0.233,-0.2318,-0.2327,-0.2315,-0.2294,-0.2291,-0.2281,-0.2279,-0.2298,-0.2286,-0.2288,-0.229,-0.2343,-0.2351,-0.2358,0,0,0,0,0,0,-0.2222,-0.2256,-0.2258,-0.2286,-0.2308,-0.2325,-0.2335,-0.2336,-0.2335,-0.2329,-0.2308,-0.2304,-0.2315,-0.2301,-0.2289,-0.2313,-0.2285,-0.2288,-0.2326,-0.2333,-0.2339,-0.2346,-0.2259,0,0,0,0,0,-0.2225,-0.2245,-0.2277,-0.2296,-0.231,-0.2323,-0.2334,-0.2338,-0.2344,-0.2342,-0.2333,-0.2324,-0.2326,-0.2323,-0.2321,-0.2335,-0.2326,-0.2346,-0.2352,-0.2357,-0.2363,-0.2366,-0.2372,-0.2299,-0.2299,-0.2299,0,0,-0.2223,-0.2245,-0.2255,-0.2294,-0.2308,-0.2339,-0.2326,-0.235,-0.2372,-0.2339,-0.2356,-0.2345,-0.2335,-0.235,-0.2353,-0.2338,-0.2376,-0.236,-0.2365,-0.2367,-0.2369,-0.2376,-0.2382,-0.2301,-0.2301,-0.23,0,0,-0.2234,-0.2252,-0.2274,-0.2301,-0.2334,-0.2349,-0.2359,-0.2384,-0.2389,-0.2409,-0.2392,-0.2395,-0.2394,-0.2394,-0.2393,-0.2433,-0.2409,-0.243,-0.2466,-0.2469,-0.2475,-0.248,-0.2489,-0.2494,-0.2432,-0.2432,-0.2432,0,-0.2228,-0.2264,-0.2284,-0.2319,-0.2342,-0.2357,-0.2389,-0.2408,-0.2427,-0.2436,-0.2419,-0.2428,-0.2418,-0.2442,-0.2455,-0.2448,-0.2444,-0.2439,-0.2477,-0.2482,-0.2486,-0.2493,-0.2498,-0.2435,-0.2435,-0.2435,-0.2434,0,-0.2258,-0.2291,-0.2309,-0.2357,-0.2385,-0.2416,-0.2451,-0.2472,-0.2477,-0.2489,-0.2509,-0.2498,-0.2498,-0.2502,-0.2491,-0.2521,-0.2507,-0.2485,-0.2458,-0.2497,-0.2502,-0.2506,-0.244,-0.2439,-0.2438,-0.2437,0,0,-0.2232,-0.2313,-0.2318,-0.2347,-0.2408,-0.2432,-0.2481,-0.2523,-0.255,-0.2559,-0.2588,-0.2592,-0.2577,-0.2575,-0.2562,-0.257,-0.2601,-0.2544,-0.2542,-0.2552,-0.2613,-0.2591,-0.2593,-0.2582,-0.2583,-0.2584,-0.2608,0,-0.2245,-0.2311,-0.2351,-0.2409,-0.2444,-0.2484,-0.2529,-0.2569,-0.2593,-0.2626,-0.2624,-0.2639,-0.2608,-0.2608,-0.2613,-0.2605,-0.2613,-0.2596,-0.2574,-0.2573,-0.2549,-0.2597,-0.2377,-0.2379,-0.2612,-0.2613,-0.2613,0,-0.2255,-0.2301,-0.236,-0.2439,-0.2458,-0.2492,-0.2558,-0.2598,-0.2655,-0.2674,-0.269,-0.2691,-0.2709,-0.2672,-0.2675,-0.2664,-0.2645,-0.2635,-0.2635,-0.2596,-0.2559,-0.2376,-0.2378,-0.262,-0.2619,-0.2619,-0.2618,0,-0.2214,-0.2302,-0.2344,-0.2372,-0.2466,-0.2492,-0.2533,-0.2599,-0.2634,-0.2693,-0.272,-0.2741,-0.2744,-0.2733,-0.271,-0.2693,-0.2714,-0.2683,-0.2647,-0.2645,-0.2445,-0.2424,-0.2686,-0.2685,-0.2685,-0.2685,-0.2685,0,-0.2209,-0.2241,-0.2325,-0.2349,-0.2388,-0.2466,-0.2512,-0.2557,-0.2636,-0.2681,-0.2722,-0.2754,-0.2757,-0.2768,-0.2741,-0.2714,-0.2733,-0.2668,-0.2654,-0.2461,-0.2443,-0.2634,-0.2627,-0.2686,-0.2686,-0.2686,-0.2686,0,-0.2149,-0.2215,-0.2256,-0.2346,-0.2366,-0.2384,-0.2473,-0.2522,-0.2598,-0.266,-0.2679,-0.276,-0.278,-0.2784,-0.2779,-0.2745,-0.2728,-0.2708,-0.2492,-0.2453,-0.265,-0.2647,-0.2678,-0.2678,-0.2677,-0.2677,-0.2677,0,-0.2123,-0.2139,-0.221,-0.2235,-0.2269,-0.2318,-0.2365,-0.2466,-0.2526,-0.2655,-0.2685,-0.2745,-0.2776,-0.2781,-0.2717,-0.268,-0.2722,-0.2473,-0.2405,-0.2668,-0.2652,-0.2649,-0.2646,-0.2159,-0.2155,-0.2151,-0.2148,0,-0.2055,-0.2074,-0.2112,-0.2146,-0.2189,-0.2234,-0.2309,-0.235,-0.2487,-0.2559,-0.2654,-0.2695,-0.2714,-0.2591,-0.2556,-0.2492,-0.2466,-0.2401,-0.2713,-0.2212,-0.2185,-0.2168,-0.218,-0.2115,-0.2119,-0.2121,-0.2123,-0.2124,-0.1982,-0.198,-0.202,-0.2042,-0.2092,-0.2122,-0.2126,-0.2237,-0.2299,-0.2369,-0.252,-0.2512,-0.2507,-0.2347,-0.2253,-0.2158,-0.2313,-0.2197,-0.2205,-0.2217,-0.217,-0.2145,-0.2059,-0.2062,-0.2064,-0.2066,-0.2068,0,-0.188,-0.1901,-0.1921,-0.1943,-0.1941,-0.2002,-0.2072,-0.2042,-0.2074,-0.2177,-0.224,-0.2063,-0.2018,-0.2004,-0.1818,-0.181,-0.1742,-0.173,-0.1628,-0.1663,-0.1693,-0.1616,-0.1359,-0.1357,-0.1355,-0.1353,0,0,-0.1834,-0.1808,-0.1812,-0.1763,-0.179,-0.173,-0.1737,-0.1713,-0.1734,-0.1696,-0.1713,-0.1904,-0.1961,-0.1662,-0.1594,-0.145,-0.1531,-0.1376,-0.1942,-0.1855,-0.1882,-0.1961,-0.1882,0,0,0,0,0]},{"header":{"parameterUnit":"m.s-1","parameterCategory":2,"la1":30.2991,"la2":30.254,"lo1":-89.0895,"lo2":-89.0444,"dy":0.0017,"dx":0.0017,"nx":28,"ny":28,"refTime":"2024-06-18T09:00:00:Z","depth":"2","parameterNumber":3,"parameterNumberName":"V-component_of_CURRENTS"},"data":[0,0,0,0,0,0,0,0,0,0,0,0,0,0,0,0,0,0,0,0,0,0,0,0,0,0,0,0,0,0,0,0,0,0,0,0,0,0,0,0,0,0,0,0,0,0,0,0,0,0,0,0,0,0,0,0,0,0,-0.0172,-0.0171,0,-0.0071,-0.007,-0.0069,-0.0005,-0.0004,-0.0004,-0.0004,0.0113,0.0116,0.0119,0,0,0,0,0,0,0,0,0,0,0,0,0,-0.0262,-0.0261,-0.0172,-0.0171,-0.017,-0.0072,-0.007,-0.0069,-0.0005,-0.0004,-0.0004,-0.0004,0.0112,0.0116,0.0119,0,0,0,0,0,0,0,0,0,0,0,0,0,-0.0198,-0.026,-0.0172,-0.0126,-0.0121,-0.0072,-0.007,-0.0068,-0.0005,-0.0004,-0.0004,-0.0003,0.0111,0.0115,0.012,0.0136,0,0,0.0133,0.0134,0,0,0,0,0,0,0,0,-0.0201,-0.0194,-0.0134,-0.0129,-0.0124,-0.0051,-0.0059,0.0001,-0.0005,-0.0048,-0.0004,-0.0003,0.0059,0.0068,0.0086,0.0141,0.0147,0.0133,0.0135,0.0137,0.0138,0,0,0,0,0,0,0,-0.0206,-0.0198,-0.0131,-0.0133,-0.0127,-0.0095,-0.0086,-0.0047,0.0002,-0.0045,-0.004,-0.003,0.0062,0.0082,0.009,0.0148,0.0133,0.0137,0.0139,0.0141,0.0238,0.0238,0,0,0,0,0,0,-0.0223,-0.0203,-0.0135,-0.0129,-0.0163,-0.0094,-0.0083,-0.0074,0.0002,0.0013,-0.003,-0.0027,0.0075,0.0085,0.0094,0.0125,0.0137,0.0141,0.0144,0.0238,0.0238,0.0238,0,0,0,0,0,0,-0.0225,-0.0218,-0.0139,-0.0164,-0.0152,-0.0093,-0.0083,-0.0072,-0.0052,0.0012,0.0024,-0.0021,0.0075,0.0088,0.0132,0.0129,0.0143,0.0147,0.0238,0.0238,0.0238,0.0181,0,0,0,0,0,0,-0.0228,-0.0219,-0.0222,-0.0165,-0.0151,-0.0117,-0.0083,-0.0071,-0.0047,-0.0042,0.0024,0.0036,0.0077,0.0125,0.0136,0.0135,0.015,0.0238,0.0238,0.0238,0.0183,0.018,0.0176,0,0,0,0,0,-0.0232,-0.0239,-0.0223,-0.0214,-0.0155,-0.0117,-0.0107,-0.0063,-0.0047,-0.0042,0.0007,0.0034,0.0133,0.0129,0.0141,0.0142,0.0238,0.0238,0.0238,0.0185,0.018,0.0177,0,0,0,0,0,0,-0.0279,-0.0231,-0.0212,-0.0204,-0.0167,-0.0107,-0.01,-0.007,-0.0026,-0.0023,0.0038,0.0053,0.0089,0.0123,0.0117,0.017,0.0188,0.0191,0.0143,0.014,0.0136,0.0122,0.0154,0,0,0,0,0,-0.0292,-0.0286,-0.0232,-0.0228,-0.0212,-0.0158,-0.0139,-0.0109,-0.0062,-0.0042,0.0006,0.0055,0.0099,0.0125,0.0165,0.0197,0.0234,0.0204,0.0201,0.0198,0.0195,0.0248,0.0249,0.0238,0.0238,0.0238,0,0,-0.031,-0.0284,-0.028,-0.0238,-0.0206,-0.0189,-0.0145,-0.0122,-0.0103,-0.0037,-0.0002,0.0043,0.0104,0.014,0.0158,0.0169,0.022,0.0198,0.0195,0.0194,0.0248,0.0249,0.025,0.0238,0.0238,0.0238,0,0,-0.0346,-0.0319,-0.0326,-0.0298,-0.0257,-0.022,-0.0217,-0.0158,-0.0129,-0.009,-0.0038,0.0008,0.0071,0.0119,0.015,0.0153,0.0197,0.0161,0.0137,0.0188,0.0189,0.0191,0.0237,0.0244,0.0162,0.0162,0.0162,0,-0.0371,-0.0369,-0.0323,-0.0319,-0.0303,-0.0238,-0.0239,-0.0197,-0.0132,-0.0107,-0.0089,0.0016,0.0063,0.012,0.012,0.0145,0.0178,0.0146,0.0183,0.0185,0.0188,0.0235,0.0243,0.016,0.016,0.016,0.016,0,-0.0407,-0.0404,-0.0406,-0.0379,-0.0354,-0.0345,-0.0283,-0.0254,-0.0212,-0.0164,-0.0104,-0.003,0.0033,0.0054,0.0089,0.0132,0.015,0.0169,0.019,0.0185,0.0236,0.0245,0.0156,0.0157,0.0157,0.0158,0,0,-0.0462,-0.0439,-0.0438,-0.0441,-0.0386,-0.0372,-0.0338,-0.0287,-0.0266,-0.0194,-0.0157,-0.0075,-0.003,0.0008,0.0064,0.0111,0.0158,0.014,0.0144,0.018,0.0267,0.0314,0.0328,0.018,0.0181,0.0182,0.0295,0,-0.0505,-0.0528,-0.0491,-0.0502,-0.0508,-0.044,-0.0414,-0.0357,-0.0297,-0.0244,-0.0151,-0.0099,-0.0047,-0.002,0.0038,0.0131,0.0178,0.0125,0.0272,0.0277,0.0313,0.0339,0.0283,0.0381,0.0304,0.0305,0.0306,0,-0.0547,-0.0559,-0.0586,-0.0571,-0.0565,-0.0556,-0.0505,-0.0473,-0.0374,-0.0326,-0.0245,-0.0168,-0.0072,-0.0041,0.0121,0.0084,0.0165,0.0235,0.0241,0.031,0.034,0.0375,0.0401,0.0321,0.032,0.0319,0.0318,0,-0.0618,-0.062,-0.065,-0.0645,-0.0614,-0.061,-0.0586,-0.0504,-0.0478,-0.0378,-0.0345,-0.0213,-0.015,-0.0025,0.0135,0.0124,0.0309,0.0315,0.0434,0.0438,0.0434,0.0436,0.0414,0.0414,0.0414,0.0414,0.0413,0,-0.0677,-0.0698,-0.0692,-0.071,-0.0738,-0.0686,-0.0686,-0.0637,-0.0566,-0.0533,-0.04,-0.0339,-0.0146,-0.0008,0.0126,0.0322,0.0309,0.044,0.0476,0.0413,0.0412,0.0392,0.0388,0.0418,0.0417,0.0416,0.0415,0,-0.0742,-0.0739,-0.0778,-0.0775,-0.0776,-0.0796,-0.077,-0.0765,-0.0684,-0.0636,-0.0609,-0.0431,-0.0237,-0.0033,0.0185,0.031,0.0487,0.055,0.0467,0.0493,0.058,0.0571,0.0695,0.0698,0.07,0.0702,0.0703,0,-0.0776,-0.0805,-0.0838,-0.0873,-0.0877,-0.0893,-0.0902,-0.0837,-0.0824,-0.0685,-0.067,-0.0471,-0.0315,0.0041,0.0295,0.0557,0.0551,0.0649,0.0624,0.0588,0.0611,0.0599,0.0588,0.0592,0.0593,0.0593,0.0594,0,-0.0842,-0.0854,-0.089,-0.0966,-0.1,-0.1027,-0.1032,-0.1041,-0.0947,-0.0885,-0.0761,-0.0624,-0.0251,0.0049,0.0404,0.054,0.0608,0.0668,0.0664,0.0532,0.0502,0.0521,0.0511,0.0598,0.0597,0.0597,0.0597,0.0597,-0.0884,-0.0933,-0.0989,-0.1054,-0.1102,-0.1153,-0.1182,-0.116,-0.1133,-0.1023,-0.086,-0.0633,-0.0291,0.02,0.0462,0.0691,0.0688,0.0729,0.0723,0.0717,0.0688,0.0664,0.0784,0.0784,0.0785,0.0785,0.0786,0,-0.0933,-0.0995,-0.1071,-0.1153,-0.1221,-0.1223,-0.1259,-0.1256,-0.1229,-0.1092,-0.094,-0.0577,-0.0199,0.0146,0.0524,0.0764,0.0721,0.0781,0.0685,0.0679,0.0675,0.0639,0.0725,0.0725,0.0726,0.0727,0,0,-0.0964,-0.1052,-0.1095,-0.1228,-0.1291,-0.1363,-0.1389,-0.1358,-0.1274,-0.1151,-0.0976,-0.0683,-0.0229,0.0034,0.0346,0.0542,0.0528,0.0538,0.0558,0.0399,0.0391,0.0617,0.0554,0,0,0,0,0]}],[{"header":{"parameterUnit":"m.s-1","parameterCategory":2,"la1":30.2991,"la2":30.254,"lo1":-89.0895,"lo2":-89.0444,"dy":0.0017,"dx":0.0017,"nx":28,"ny":28,"refTime":"2024-06-18T09:00:00:Z","depth":"4","parameterNumber":2,"parameterNumberName":"U-component_of_CURRENTS"},"data":[0,0,0,0,0,0,0,0,0,0,0,0,0,0,0,0,0,0,0,0,0,0,0,0,0,0,0,0,0,0,0,0,0,0,0,0,0,0,0,0,0,0,0,0,0,0,0,0,0,0,0,0,0,0,0,0,0,0,-0.1513,-0.1514,0,-0.1579,-0.1579,-0.158,-0.1618,-0.1618,-0.1619,-0.1619,-0.1666,-0.1667,-0.1668,0,0,0,0,0,0,0,0,0,0,0,0,0,-0.1419,-0.142,-0.1513,-0.1514,-0.1515,-0.1579,-0.1579,-0.158,-0.1618,-0.1618,-0.1619,-0.1619,-0.1666,-0.1667,-0.1668,0,0,0,0,0,0,0,0,0,0,0,0,0,-0.1468,-0.1421,-0.1512,-0.1542,-0.1546,-0.1578,-0.1579,-0.158,-0.1618,-0.1618,-0.1619,-0.1619,-0.1665,-0.1667,-0.1668,-0.1668,0,0,-0.1673,-0.1673,0,0,0,0,0,0,0,0,-0.1465,-0.1471,-0.1537,-0.1541,-0.1544,-0.1592,-0.1564,-0.1609,-0.1618,-0.1589,-0.1619,-0.162,-0.164,-0.1644,-0.1653,-0.167,-0.1672,-0.1673,-0.1674,-0.1674,-0.1675,0,0,0,0,0,0,0,-0.1462,-0.1469,-0.1537,-0.1538,-0.1543,-0.1553,-0.156,-0.1573,-0.161,-0.1591,-0.1595,-0.1605,-0.1642,-0.1652,-0.1655,-0.1673,-0.1673,-0.1674,-0.1675,-0.1676,-0.1763,-0.1764,0,0,0,0,0,0,-0.1457,-0.1466,-0.1535,-0.1539,-0.1507,-0.1554,-0.1562,-0.1575,-0.161,-0.1616,-0.1604,-0.1606,-0.1649,-0.1653,-0.1656,-0.1728,-0.1674,-0.1676,-0.1677,-0.1761,-0.1763,-0.1765,0,0,0,0,0,0,-0.1455,-0.1463,-0.1532,-0.1505,-0.1515,-0.1555,-0.1569,-0.1576,-0.1614,-0.162,-0.1626,-0.1639,-0.165,-0.1654,-0.1694,-0.1728,-0.1676,-0.1678,-0.176,-0.1762,-0.1764,-0.1827,0,0,0,0,0,0,-0.1452,-0.1461,-0.1481,-0.1505,-0.1516,-0.1571,-0.1569,-0.1577,-0.1619,-0.1623,-0.1651,-0.1654,-0.165,-0.1692,-0.1696,-0.1729,-0.1679,-0.1758,-0.1761,-0.1763,-0.1823,-0.1831,-0.1838,0,0,0,0,0,-0.1448,-0.147,-0.1482,-0.1491,-0.1538,-0.1572,-0.158,-0.1608,-0.162,-0.1643,-0.1664,-0.1655,-0.1711,-0.1695,-0.1698,-0.1733,-0.1757,-0.176,-0.1763,-0.182,-0.1829,-0.1838,0,0,0,0,0,0,-0.1442,-0.1477,-0.149,-0.1523,-0.1555,-0.158,-0.1608,-0.1625,-0.1661,-0.1672,-0.1674,-0.1679,-0.1726,-0.1721,-0.1702,-0.1765,-0.1733,-0.1737,-0.1774,-0.1783,-0.1791,-0.1792,-0.168,0,0,0,0,0,-0.1449,-0.1476,-0.1508,-0.1537,-0.1556,-0.1587,-0.161,-0.1631,-0.1659,-0.1677,-0.1697,-0.1717,-0.1737,-0.1755,-0.1769,-0.1805,-0.1793,-0.1829,-0.1837,-0.1843,-0.1847,-0.1854,-0.1862,-0.1775,-0.1775,-0.1775,0,0,-0.1455,-0.1479,-0.1495,-0.1539,-0.1566,-0.1602,-0.1603,-0.1648,-0.1685,-0.1675,-0.1737,-0.1746,-0.1753,-0.1794,-0.1814,-0.1798,-0.1864,-0.1847,-0.1853,-0.1853,-0.1859,-0.1867,-0.1874,-0.1778,-0.1777,-0.1777,0,0,-0.1472,-0.1503,-0.1529,-0.1561,-0.161,-0.1631,-0.1651,-0.1695,-0.1725,-0.1776,-0.1779,-0.181,-0.1846,-0.1857,-0.1864,-0.1921,-0.1902,-0.1931,-0.1973,-0.198,-0.1987,-0.1993,-0.1996,-0.2002,-0.1936,-0.1936,-0.1936,0,-0.1479,-0.1517,-0.1544,-0.158,-0.1613,-0.1648,-0.1688,-0.1724,-0.1778,-0.1804,-0.1807,-0.1865,-0.1874,-0.1915,-0.1939,-0.1939,-0.1937,-0.1938,-0.1989,-0.1994,-0.1999,-0.2001,-0.2007,-0.1939,-0.1939,-0.1938,-0.1938,0,-0.1508,-0.1553,-0.1574,-0.163,-0.1669,-0.1712,-0.176,-0.1807,-0.1846,-0.1874,-0.1933,-0.1945,-0.1975,-0.1988,-0.1984,-0.203,-0.2016,-0.1996,-0.1964,-0.2012,-0.2011,-0.2016,-0.1944,-0.1943,-0.1942,-0.1941,0,0,-0.1483,-0.1576,-0.1586,-0.1626,-0.1702,-0.1734,-0.1805,-0.1868,-0.1915,-0.1963,-0.2017,-0.2054,-0.2059,-0.2067,-0.2067,-0.2081,-0.212,-0.2062,-0.2061,-0.2062,-0.2139,-0.201,-0.2002,-0.211,-0.2111,-0.2112,-0.2127,0,-0.1499,-0.1571,-0.1617,-0.1696,-0.1737,-0.1799,-0.186,-0.1924,-0.1975,-0.2037,-0.206,-0.2105,-0.2089,-0.2109,-0.2123,-0.2122,-0.2135,-0.2118,-0.2096,-0.2095,-0.1971,-0.2004,-0.2115,-0.213,-0.2131,-0.2131,-0.2132,0,-0.1503,-0.1555,-0.1631,-0.1733,-0.1758,-0.1813,-0.1912,-0.1969,-0.2056,-0.2097,-0.2141,-0.2161,-0.22,-0.2175,-0.2192,-0.2184,-0.2171,-0.2163,-0.2162,-0.202,-0.1973,-0.2071,-0.214,-0.2139,-0.2138,-0.2138,-0.2137,0,-0.1455,-0.1562,-0.1625,-0.166,-0.1777,-0.183,-0.1891,-0.1985,-0.2035,-0.213,-0.2169,-0.2216,-0.224,-0.2237,-0.2224,-0.2216,-0.2232,-0.2211,-0.2082,-0.2073,-0.2158,-0.2151,-0.2219,-0.2219,-0.2219,-0.2219,-0.2219,0,-0.1436,-0.149,-0.1612,-0.1645,-0.1719,-0.1813,-0.1894,-0.1961,-0.2061,-0.2111,-0.2187,-0.2215,-0.2257,-0.2269,-0.2249,-0.2173,-0.2247,-0.2091,-0.2066,-0.2185,-0.2181,-0.2161,-0.2154,-0.222,-0.222,-0.222,-0.222,0,-0.1365,-0.1452,-0.1524,-0.1654,-0.1696,-0.1743,-0.1874,-0.193,-0.2034,-0.2101,-0.2131,-0.2224,-0.2231,-0.2252,-0.2253,-0.2182,-0.2138,-0.2094,-0.223,-0.2213,-0.1972,-0.1969,-0.1949,-0.1944,-0.194,-0.1937,-0.1934,0,-0.1332,-0.1364,-0.1496,-0.1541,-0.1603,-0.1695,-0.1758,-0.1888,-0.1941,-0.2078,-0.2093,-0.2157,-0.2195,-0.2092,-0.2131,-0.2082,-0.2054,-0.2027,-0.1989,-0.1966,-0.1945,-0.1947,-0.1948,-0.1928,-0.1927,-0.1926,-0.1925,0,-0.1257,-0.1314,-0.1373,-0.1449,-0.1526,-0.1596,-0.1694,-0.1716,-0.1861,-0.1984,-0.1996,-0.1999,-0.201,-0.1999,-0.1977,-0.1941,-0.2042,-0.1987,-0.1994,-0.1958,-0.1941,-0.1924,-0.193,-0.1912,-0.1914,-0.1915,-0.1916,0,-0.1195,-0.1209,-0.1285,-0.134,-0.1427,-0.1458,-0.1531,-0.1599,-0.1659,-0.1823,-0.1824,-0.1895,-0.199,-0.1925,-0.1905,-0.1861,-0.1826,-0.1765,-0.1783,-0.1798,-0.1739,-0.1694,-0.1567,0,0,0,0,0,-0.1124,-0.1128,-0.1171,-0.1223,-0.1304,-0.1344,-0.1472,-0.1555,-0.1701,-0.1665,-0.1738,-0.1741,-0.1722,-0.1763,-0.1679,-0.1822,-0.1824,-0.1719,-0.1761,-0.1839,-0.1854,-0.1798,0,0,0,0,0,0,-0.108,-0.1115,-0.1123,-0.1103,-0.1118,-0.1183,-0.1254,-0.1362,-0.1355,-0.1512,-0.1506,-0.1631,-0.1629,-0.173,-0.1638,-0.1649,-0.164,-0.1777,-0.1772,-0.1831,-0.1844,-0.1857,-0.1803,0,0,0,0,0]},{"header":{"parameterUnit":"m.s-1","parameterCategory":2,"la1":30.2991,"la2":30.254,"lo1":-89.0895,"lo2":-89.0444,"dy":0.0017,"dx":0.0017,"nx":28,"ny":28,"refTime":"2024-06-18T09:00:00:Z","depth":"4","parameterNumber":3,"parameterNumberName":"V-component_of_CURRENTS"},"data":[0,0,0,0,0,0,0,0,0,0,0,0,0,0,0,0,0,0,0,0,0,0,0,0,0,0,0,0,0,0,0,0,0,0,0,0,0,0,0,0,0,0,0,0,0,0,0,0,0,0,0,0,0,0,0,0,0,0,-0.0075,-0.0075,0,-0.0007,-0.0007,-0.0006,0.0044,0.0044,0.0044,0.0045,0.0139,0.0141,0.0143,0,0,0,0,0,0,0,0,0,0,0,0,0,-0.0126,-0.0126,-0.0075,-0.0075,-0.0074,-0.0008,-0.0007,-0.0006,0.0043,0.0044,0.0044,0.0045,0.0138,0.014,0.0143,0,0,0,0,0,0,0,0,0,0,0,0,0,-0.0085,-0.0125,-0.0076,-0.0042,-0.0039,-0.0008,-0.0007,-0.0005,0.0043,0.0044,0.0044,0.0045,0.0137,0.014,0.0143,0.0154,0,0,0.0153,0.0155,0,0,0,0,0,0,0,0,-0.0087,-0.0083,-0.0048,-0.0044,-0.004,0.0009,0.001,0.0049,0.0043,0.0013,0.0045,0.0045,0.0097,0.0103,0.0116,0.0158,0.0162,0.0154,0.0156,0.0157,0.0158,0,0,0,0,0,0,0,-0.009,-0.0086,-0.0048,-0.0047,-0.0042,-0.0018,-0.0012,0.0018,0.0053,0.0016,0.0019,0.0025,0.0099,0.0113,0.0119,0.0164,0.0154,0.0157,0.0159,0.016,0.0236,0.0236,0,0,0,0,0,0,-0.0103,-0.0088,-0.005,-0.0046,-0.0064,-0.0018,-0.0011,-0.0006,0.0052,0.0061,0.0025,0.0027,0.0107,0.0115,0.0122,0.0149,0.0157,0.016,0.0162,0.0236,0.0236,0.0236,0,0,0,0,0,0,-0.0104,-0.01,-0.0052,-0.0066,-0.0058,-0.0018,-0.0013,-0.0005,0.0009,0.0058,0.0068,0.0031,0.0108,0.0118,0.0152,0.0153,0.0162,0.0165,0.0236,0.0236,0.0236,0.0197,0,0,0,0,0,0,-0.0106,-0.0101,-0.0106,-0.0067,-0.0058,-0.0039,-0.0013,-0.0004,0.0012,0.0016,0.0067,0.0076,0.0109,0.0147,0.0155,0.0158,0.0167,0.0236,0.0236,0.0236,0.0198,0.0195,0.0193,0,0,0,0,0,-0.0108,-0.0116,-0.0106,-0.0102,-0.0065,-0.004,-0.0033,-0.0001,0.0011,0.0014,0.0053,0.0075,0.0153,0.015,0.0159,0.0163,0.0236,0.0236,0.0236,0.0199,0.0196,0.0193,0,0,0,0,0,0,-0.014,-0.0111,-0.0099,-0.0098,-0.0074,-0.0032,-0.0029,-0.0006,0.0026,0.003,0.0078,0.009,0.0118,0.0145,0.014,0.0185,0.0197,0.0199,0.0166,0.0163,0.0161,0.0149,0.017,0,0,0,0,0,-0.0151,-0.0151,-0.0116,-0.0117,-0.0107,-0.0069,-0.0057,-0.0035,-0.0001,0.0014,0.0052,0.0091,0.0126,0.0147,0.0179,0.0205,0.0234,0.0213,0.021,0.0208,0.0206,0.0253,0.0255,0.0236,0.0236,0.0236,0,0,-0.0165,-0.0149,-0.0149,-0.0124,-0.0103,-0.0092,-0.006,-0.0046,-0.0032,0.0019,0.0046,0.0082,0.013,0.016,0.0175,0.0184,0.0228,0.0208,0.0206,0.0205,0.0253,0.0255,0.0257,0.0236,0.0236,0.0236,0,0,-0.0192,-0.0178,-0.0185,-0.0167,-0.0142,-0.0116,-0.0114,-0.0074,-0.0052,-0.0023,0.0018,0.0057,0.0105,0.0146,0.0172,0.0175,0.0211,0.0181,0.0166,0.0212,0.0214,0.0216,0.025,0.0256,0.0184,0.0184,0.0184,0,-0.021,-0.0213,-0.0184,-0.0183,-0.0174,-0.0129,-0.0131,-0.0101,-0.0054,-0.0035,-0.0022,0.0062,0.0101,0.015,0.0152,0.0171,0.0196,0.0172,0.0209,0.0211,0.0214,0.0249,0.0256,0.0182,0.0182,0.0182,0.0183,0,-0.0236,-0.0239,-0.0243,-0.0227,-0.0211,-0.0208,-0.0164,-0.0144,-0.0114,-0.0078,-0.0029,0.003,0.0081,0.01,0.0128,0.0169,0.018,0.0196,0.0214,0.0214,0.025,0.0258,0.0179,0.018,0.0181,0.0181,0,0,-0.0273,-0.0266,-0.0266,-0.0273,-0.0237,-0.023,-0.0204,-0.0169,-0.0154,-0.0098,-0.0071,0.0001,0.0036,0.0067,0.0113,0.0157,0.02,0.018,0.0183,0.021,0.0293,0.027,0.0276,0.0222,0.0223,0.0224,0.0308,0,-0.0303,-0.0326,-0.0304,-0.0319,-0.0326,-0.0281,-0.0263,-0.0222,-0.0179,-0.014,-0.0063,-0.0023,0.0024,0.0044,0.0099,0.0175,0.0218,0.0175,0.0292,0.0296,0.0272,0.0283,0.0228,0.0314,0.0316,0.0317,0.0318,0,-0.0331,-0.0345,-0.0372,-0.0373,-0.0371,-0.0371,-0.034,-0.0318,-0.0244,-0.0209,-0.0142,-0.0082,0.0001,0.003,0.017,0.0139,0.0207,0.0267,0.0272,0.0269,0.0286,0.0317,0.0332,0.0331,0.033,0.0329,0.0328,0,-0.0375,-0.0389,-0.0419,-0.0419,-0.0408,-0.0413,-0.0403,-0.0344,-0.033,-0.0255,-0.0234,-0.012,-0.0069,0.0041,0.0173,0.017,0.032,0.0333,0.0379,0.0378,0.0391,0.0388,0.0421,0.0421,0.0421,0.0421,0.0421,0,-0.041,-0.0434,-0.0451,-0.0469,-0.0503,-0.0472,-0.0485,-0.0453,-0.0407,-0.0388,-0.028,-0.0236,-0.0065,0.0047,0.0162,0.0295,0.0317,0.0377,0.04,0.0372,0.0366,0.0397,0.0392,0.0424,0.0423,0.0423,0.0422,0,-0.0444,-0.0456,-0.0499,-0.0517,-0.0528,-0.0553,-0.0558,-0.0562,-0.0508,-0.048,-0.0461,-0.0319,-0.017,-0.0,0.0186,0.027,0.0404,0.0443,0.0395,0.0415,0.0433,0.0426,0.0499,0.0499,0.0499,0.0499,0.0499,0,-0.0461,-0.0488,-0.0546,-0.0585,-0.0602,-0.0632,-0.0652,-0.0619,-0.0615,-0.0526,-0.0515,-0.0371,-0.0259,-0.0011,0.0166,0.0385,0.0411,0.0473,0.0457,0.0426,0.0442,0.0435,0.0429,0.0499,0.0498,0.0498,0.0498,0,-0.0492,-0.052,-0.0558,-0.0642,-0.0691,-0.0731,-0.0754,-0.0762,-0.0707,-0.0661,-0.0555,-0.0407,-0.0237,-0.0026,0.0146,0.0303,0.0431,0.0473,0.0474,0.046,0.0427,0.0441,0.0435,0.0498,0.0498,0.0498,0.0498,0,-0.0515,-0.0556,-0.0618,-0.0686,-0.0756,-0.0808,-0.0815,-0.0796,-0.0779,-0.0674,-0.0637,-0.0435,-0.0303,-0.0068,0.0093,0.0244,0.0277,0.0313,0.0323,0.0325,0.0249,0.018,0.0197,0,0,0,0,0,-0.0529,-0.0581,-0.0656,-0.0732,-0.0803,-0.084,-0.0869,-0.086,-0.0808,-0.075,-0.0692,-0.0528,-0.0267,-0.0142,0.0003,0.0079,0.0292,0.0251,0.0335,0.0497,0.0497,0.0436,0,0,0,0,0,0,-0.0544,-0.0616,-0.0656,-0.0752,-0.0812,-0.088,-0.0906,-0.0878,-0.0831,-0.0757,-0.0618,-0.051,-0.0256,-0.0352,0.0001,0.0052,0.0119,0.0388,0.0391,0.0497,0.0497,0.0497,0.0435,0,0,0,0,0]}]]